Flag for U.S.A. Weather past 2 weeks in Metairie, Louisiana, U.S.A.

Now
67 °F

Fog.


Feels Like: 67 °F
Forecast: 61 / 71 °F
Wind: 7 mph from South

Location: New Orleans International Airport

Current Time: Mar 2, 2015 at 9:34:48 AM

Latest Report: Mar 2, 2015 at 8:53 AM


Visibility: 5 mi

Pressure: 30.29 "Hg

Humidity: 90%

Dew point: 64 °F

Location of MetairieLocation

Historic Weather in Metairie — Graph

°F

Metairie temperature yesterday

Maximum temperature yesterday: 66 °F (at 2:53 PM)
Minimum temperature yesterday: 56 °F (at 6:53 AM)
Average temperature yesterday: 59 °F

Past Weeks' High & Low Weather Summary

 TemperatureHumidityPressure
High78 °F (Feb 22, 11:53 AM)97% (Mar 1, 6:53 AM)30.50 "Hg (Mar 1, 6:53 AM)
Low30 °F (Feb 18, 4:53 AM)23% (Feb 19, 5:53 PM)29.68 "Hg (Feb 25, 12:53 PM)
Average51 °F72%30.18 "Hg
* Reported Feb 15 7:53 AM — Mar 2 7:53 AM, Metairie, Weather by CustomWeather, © 2015

Note: Actual official high and low records may vary slightly from our data, if they occured in-between our weather recording intervals... More about our weather records

Advertising

Metairie weather history for previous 24 hours

 ConditionsComfort  
Time TempWeatherWind HumidityBarometerVisibility
7:53 AM
Mon, Mar 2
64 °FFog.8 mph90%30.27 "Hg5 mi
6:53 AM61 °FFog.6 mph93%30.27 "Hg4 mi
5:53 AM61 °FLow clouds.5 mph90%30.25 "Hg8 mi
4:53 AM60 °FLow clouds.No wind93%30.26 "Hg7 mi
3:53 AM60 °FLow clouds.3 mph90%30.25 "Hg9 mi
2:53 AM60 °FLight rain. Fog.5 mph90%30.27 "Hg6 mi
1:53 AM60 °FLight rain. Fog.No wind93%30.27 "Hg5 mi
12:53 AM61 °FLight rain. Fog.9 mph93%30.28 "Hg6 mi
11:53 PM
Sun, Mar 1
59 °FLight rain. Fog.10 mph93%30.30 "Hg1 mi
10:53 PM58 °FFog.13 mph97%30.29 "Hg1 mi
9:53 PM58 °FLight rain. Fog.13 mph93%30.29 "Hg1 mi
8:53 PM58 °FFog.9 mph93%30.29 "Hg1 mi
7:53 PM58 °FFog.8 mph93%30.27 "Hg1 mi
6:53 PM59 °FFog.12 mph90%30.26 "Hg1 mi
5:53 PM60 °FFog.8 mph90%30.26 "Hg1 mi
4:53 PM62 °FFog.8 mph86%30.26 "Hg3 mi
3:53 PM65 °FLow clouds.10 mph81%30.25 "Hg2 mi
2:53 PM66 °FLow clouds.5 mph81%30.26 "Hg2 mi
1:53 PM65 °FLow clouds.6 mph81%30.27 "Hg2 mi
12:53 PM64 °FLow clouds.7 mph84%30.28 "Hg2 mi
11:53 AM64 °FLow clouds.9 mph84%30.30 "Hg2 mi
10:53 AM59 °FFog.12 mph93%30.32 "Hg0 mi
9:53 AM58 °FFog.10 mph93%30.33 "Hg0 mi
Weather by CustomWeather, © 2015

See weather overviewHow to use our weather pages